Wind_Speed
8 9 9 9 9 10 11 12 13 15 17 18 14 10 11 9 8 7 7 6 7 8 6 5 7 7 5 3 3 7 9 10 9 10 11 11 9 4 2 5 7 4 5 9 19 28 24
8 8 8 8 7 8 9 11 12 13 15 17 14 9 12 11 10 9 7 6 6 7 7 6 7 6 3 2 4 6 8 10 10 9 8 9 5 5 5 4 2 5 16 21 19 23 18
6 7 6 6 6 7 8 9 11 13 14 16 16 12 14 12 11 10 8 6 5 5 7 7 7 8 6 4 4 7 10 10 11 10 8 7 6 5 6 5 5 9 7 8 6 4 6
5 5 5 6 6 7 7 8 9 11 13 15 15 14 15 13 11 11 9 7 5 5 6 6 7 8 5 5 7 7 10 9 10 10 8 5 9 8 3 9 7 4 1 5 5 4 7
3 4 4 5 5 6 7 8 10 11 13 14 15 15 15 15 11 11 10 9 7 6 6 7 8 6 4 4 7 9 11 8 11 6 10 8 9 3 3 2 4 4 5 5 9 4 3
2 3 3 4 5 6 7 9 10 12 13 14 15 15 15 16 12 12 12 10 7 8 7 6 7 5 5 5 9 14 7 7 8 9 3 1 1 3 2 3 3 7 6 6 10 5 4
4 4 5 7 8 8 9 10 11 11 13 14 15 15 15 15 12 14 12 8 5 3 6 6 4 7 8 10 13 3 6 8 6 2 1 1 2 6 9 7 6 5 5 11 17 13 4
7 6 5 6 7 9 10 10 11 11 12 13 14 15 15 15 11 12 12 5 5 6 8 7 10 14 12 9 4 4 4 3 2 3 2 3 6 6 5 7 6 6 7 9 10 3 3
8 9 10 10 8 9 10 11 12 13 13 14 14 15 15 15 10 11 10 9 8 9 3 4 5 6 4 4 4 2 2 2 3 2 3 5 6 7 3 6 5 4 5 5 6 10 2
12 11 12 13 13 11 12 13 13 13 14 14 15 15 15 15 7 12 8 10 8 8 4 3 2 2 2 2 3 3 2 2 2 3 5 6 4 4 4 6 1 6 4 5 8 4 3
10 12 12 13 14 16 16 16 15 15 15 14 15 15 14 13 11 9 10 9 7 5 3 2 2 2 2 3 6 1 3 1 3 3 4 6 3 5 4 3 1 10 6 7 2 2 3
16 16 16 16 17 16 17 18 18 18 17 16 15 16 14 13 12 7 8 7 5 5 5 1 1 1 3 1 2 1 2 3 3 2 3 7 6 3 4 5 4 9 4 3 3 2 2
18 17 18 18 18 19 20 20 19 20 20 19 17 15 16 13 10 9 6 4 5 4 2 2 2 2 1 3 3 1 2 3 1 5 6 6 3 3 2 6 2 8 6 4 6 5 4
23 23 23 24 24 24 23 22 23 23 21 20 18 17 16 14 10 6 2 4 2 4 5 2 1 1 3 2 3 1 2 3 2 3 2 3 8 2 1 1 3 3 3 4 4 3 5
24 22 22 22 22 23 25 25 24 24 23 25 19 17 15 13 10 5 4 3 7 6 2 1 1 1 2 1 1 2 3 4 6 7 3 1 6 4 2 1 3 2 2 2 2 1 2
12 13 15 17 17 17 17 19 21 22 21 20 21 18 13 10 6 8 3 6 5 5 3 1 4 5 4 2 1 1 2 4 3 6 2 2 5 2 4 2 0 1 1 2 2 4 5
14 15 14 15 17 17 17 17 17 17 16 16 15 8 5 6 8 6 4 7 5 7 7 6 5 3 6 3 5 3 4 4 5 4 3 5 3 6 2 3 2 3 2 2 2 3 2
15 17 18 16 15 15 17 17 17 15 12 9 4 3 2 7 3 3 3 5 3 4 5 5 3 6 7 6 5 5 8 7 10 11 6 6 4 4 8 3 2 3 2 3 3 4 2
16 13 11 13 17 20 20 16 14 13 9 10 7 6 4 8 3 3 5 4 4 2 4 5 5 6 3 5 3 6 4 2 13 9 7 6 2 3 9 4 1 2 3 3 2 2 5
17 13 13 12 16 18 24 21 15 11 6 4 4 3 3 6 3 2 3 5 5 6 5 3 3 2 2 3 3 3 3 1 7 5 5 9 4 7 6 7 1 5 4 3 4 2 3
17 15 13 14 15 18 21 24 19 12 6 4 3 4 3 2 1 2 1 2 5 5 3 2 1 3 3 3 2 5 3 3 2 5 6 4 6 5 7 8 3 7 14 8 10 8 6
15 15 17 14 15 16 19 23 23 17 6 3 3 5 7 7 9 3 4 3 2 4 3 5 3 9 1 5 6 12 3 1 7 2 6 2 4 4 4 6 7 6 12 10 11 6 12
14 14 15 16 19 14 14 19 21 21 13 4 4 4 5 6 5 4 2 2 3 11 10 4 10 11 8 9 20 20 26 25 17 7 8 7 5 3 5 2 6 6 14 10 6 5 7
13 15 15 15 16 18 14 15 15 17 16 10 7 8 3 4 3 3 11 17 13 13 12 21 21 9 7 25 28 24 21 22 18 13 15 7 6 4 3 1 7 7 2 3 6 6 10
15 18 17 16 16 17 16 14 13 14 13 11 7 7 5 4 6 12 14 12 18 21 20 22 22 24 26 23 8 7 4 6 6 9 13 7 6 3 3 5 8 12 6 7 8 8 10
15 16 17 18 18 18 17 15 12 14 12 13 9 7 7 8 4 6 3 11 9 8 7 14 13 25 18 5 4 9 7 4 4 2 5 4 3 8 4 4 7 4 4 1 2 5 7
17 18 19 19 19 19 19 18 17 16 15 15 15 12 10 9 18 12 4 4 10 12 6 10 7 11 18 3 6 10 14 3 13 9 5 4 2 11 10 9 8 6 5 4 3 7 9
18 19 19 20 21 21 21 21 21 18 17 15 18 14 16 16 27 32 32 24 14 14 6 13 14 6 4 5 4 6 7 9 11 15 8 12 8 5 5 8 17 16 7 9 6 3 13
18 19 21 23 23 23 23 22 21 22 19 18 22 19 20 22 23 29 32 33 37 37 31 19 14 19 6 3 3 4 4 4 6 16 6 14 14 11 11 8 5 18 12 24 8 8 16
Wind_Direction
65 60 58 52 48 41 35 30 23 20 17 15 14 11 358 344 331 318 302 286 265 252 267 318 345 352 348 354 357 355 354 1 353 355 6 10 27 359 319 303 320 210 266 279 282 287 286
62 60 51 50 42 31 27 21 17 15 14 14 14 12 360 351 341 329 313 294 264 243 243 275 319 334 313 298 342 344 343 348 345 343 358 9 4 337 284 273 274 285 286 286 293 288 280
62 55 49 38 27 19 15 14 10 10 10 11 11 7 2 358 351 344 333 308 272 240 239 261 294 313 278 262 319 333 335 339 338 333 328 341 351 347 316 290 293 282 306 318 276 271 270
61 53 43 33 22 15 8 6 6 4 7 8 7 2 1 358 353 350 344 331 296 254 243 260 283 298 261 258 312 319 326 329 330 320 313 308 322 318 254 304 318 333 358 337 277 269 268
67 50 31 22 18 9 5 1 359 359 0 1 2 0 358 355 350 348 341 328 302 272 261 270 282 280 262 274 306 318 321 315 321 299 317 290 301 307 320 357 354 4 280 272 307 233 277
34 32 10 5 359 357 358 355 356 355 355 356 356 356 354 352 346 349 341 331 301 279 267 267 259 284 248 300 312 314 307 306 316 305 306 187 293 355 353 64 286 282 293 270 268 275 204
347 351 9 360 355 348 349 348 347 349 349 348 350 351 349 348 343 351 352 346 332 292 260 247 251 267 288 309 303 284 296 302 306 316 352 341 15 255 263 214 241 268 264 272 281 286 275
359 342 358 8 350 343 341 341 338 339 341 342 343 344 346 344 339 351 356 19 6 319 310 261 255 264 277 302 295 298 290 295 317 277 292 2 239 243 266 262 252 255 266 277 288 252 263
8 350 338 355 348 338 335 335 336 334 335 336 338 340 345 344 339 346 354 5 350 342 290 284 253 273 280 280 280 274 283 288 267 285 232 189 255 327 245 303 296 237 220 261 260 329 327
352 343 332 331 332 326 326 327 329 331 332 334 334 336 339 347 343 344 347 348 346 341 51 254 244 245 261 278 278 259 267 294 290 280 301 232 288 290 300 280 193 306 201 274 292 10 292
340 337 340 338 325 326 325 319 318 321 323 328 331 330 335 342 332 334 333 338 341 333 20 224 198 226 251 241 306 244 233 239 242 279 54 265 308 342 312 252 114 255 320 291 258 180 34
336 330 326 327 330 328 323 322 321 317 316 317 323 324 327 330 323 321 328 333 334 42 262 294 167 269 327 235 263 281 235 242 273 298 211 254 286 246 238 293 207 291 324 51 45 68 26
328 325 321 320 320 321 320 317 315 314 313 311 314 316 317 321 311 310 319 335 32 137 305 236 251 152 146 270 299 180 314 315 9 18 357 324 271 276 262 326 352 13 14 350 356 2 236
307 307 307 307 309 309 308 309 308 307 308 307 308 306 305 307 301 297 296 48 140 244 234 9 74 320 237 170 249 296 311 304 205 106 68 63 330 4 28 192 293 344 93 128 304 306 291
305 306 305 303 303 306 306 304 302 301 305 303 304 303 298 292 284 245 153 86 218 210 244 204 319 345 290 219 229 0 215 226 215 175 166 89 274 306 222 247 120 349 20 184 252 240 356
336 333 331 325 319 316 315 312 309 309 312 311 312 310 288 267 233 182 107 230 234 218 161 134 206 186 236 232 244 174 225 205 208 191 137 199 305 233 293 346 89 204 213 17 14 336 305
360 356 349 342 331 328 319 316 315 315 314 310 314 309 246 207 177 184 186 226 265 244 204 177 210 234 226 241 204 220 245 263 181 162 140 146 142 288 334 180 164 353 342 59 134 146 243
6 16 3 3 1 349 336 325 324 323 322 311 306 299 269 191 192 237 203 213 239 233 217 245 216 213 205 192 222 230 226 222 178 156 173 203 155 265 250 201 208 191 222 128 115 284 233
359 1 10 356 354 355 351 343 334 339 342 340 326 275 257 195 214 249 291 288 272 243 227 196 238 209 172 212 240 202 222 273 176 162 169 185 205 340 333 14 119 212 208 164 118 92 222
350 356 357 346 340 339 345 350 344 336 322 296 305 323 266 206 226 149 347 286 285 288 268 264 271 166 146 252 239 281 262 278 203 209 193 160 173 193 210 224 143 285 197 163 125 194 238
343 351 341 342 341 347 353 355 352 350 318 253 240 273 318 293 307 264 7 294 304 323 294 295 343 228 198 261 263 234 250 293 230 213 168 156 219 195 256 257 255 256 264 215 200 205 203
336 339 342 343 347 350 350 350 353 357 357 170 312 349 341 305 301 258 208 240 239 305 239 319 275 305 1 246 249 288 256 187 227 159 167 184 256 160 274 275 228 249 261 239 220 217 241
323 329 332 337 342 341 343 344 357 5 9 42 327 309 318 280 320 337 231 276 12 1 294 279 359 325 303 291 296 288 291 272 253 187 197 167 176 155 256 329 308 270 242 211 198 174 170
309 309 313 318 325 339 330 333 347 0 6 8 356 333 313 281 283 277 320 316 309 311 288 299 313 318 307 314 314 297 282 267 243 216 181 169 166 167 262 346 253 251 301 229 219 223 207
304 298 303 304 312 317 328 322 320 331 346 346 344 322 301 284 306 295 286 294 303 297 295 290 287 288 303 290 304 305 317 303 222 218 201 181 153 205 211 211 300 305 270 188 179 258 205
298 300 301 299 297 300 306 312 306 308 309 313 312 287 291 304 254 300 334 306 297 293 294 266 298 309 314 234 196 254 250 235 254 218 31 115 55 208 144 214 250 242 338 193 115 285 215
300 299 298 299 299 296 293 291 298 294 294 298 292 292 280 273 287 275 248 340 324 323 292 304 338 334 322 232 233 243 253 254 246 227 172 139 163 215 217 245 269 238 198 164 159 244 180
296 296 295 295 294 293 293 289 280 285 284 280 279 266 261 264 273 271 276 276 259 247 258 296 327 289 244 248 259 227 243 221 236 238 189 201 175 182 197 228 262 205 121 182 213 208 191
306 303 298 295 293 292 288 289 282 277 280 277 275 278 269 262 256 278 269 266 265 268 267 264 250 282 297 342 312 336 316 335 293 257 214 236 218 226 193 215 227 188 218 222 254 217 194
Height
1567 1566 1565 1565 1564 1563 1561 1560 1558 1556 1553 1550 1548 1546 1545 1543 1541 1539 1538 1537 1536 1537 1537 1536 1535 1533 1532 1531 1530 1527 1526 1524 1523 1522 1519 1517 1516 1517 1517 1515 1512 1510 1503 1499 1495 1492 1489
1568 1567 1567 1565 1564 1564 1562 1561 1559 1556 1554 1551 1548 1546 1544 1542 1541 1539 1537 1535 1535 1534 1535 1535 1534 1533 1532 1532 1528 1527 1525 1524 1523 1522 1520 1518 1517 1517 1516 1513 1513 1507 1502 1496 1489 1485 1484
1569 1568 1567 1566 1565 1564 1563 1561 1559 1557 1555 1552 1549 1547 1544 1542 1540 1538 1536 1535 1534 1533 1533 1533 1533 1532 1530 1530 1526 1525 1523 1522 1521 1520 1519 1518 1517 1516 1515 1512 1509 1505 1503 1493 1485 1482 1480
1569 1568 1567 1566 1565 1564 1563 1561 1559 1557 1555 1552 1549 1547 1544 1542 1539 1538 1536 1534 1533 1532 1531 1531 1531 1530 1528 1526 1525 1524 1523 1521 1520 1519 1518 1518 1517 1514 1513 1511 1506 1506 1505 1505 1484 1481 1476
1569 1568 1568 1567 1565 1564 1563 1561 1560 1558 1555 1553 1550 1547 1544 1542 1539 1537 1535 1534 1532 1531 1531 1530 1531 1530 1526 1525 1524 1523 1521 1520 1519 1518 1516 1516 1516 1515 1513 1513 1514 1511 1513 1505 1492 1478 1478
1570 1568 1568 1567 1565 1564 1563 1561 1559 1558 1556 1553 1550 1547 1544 1542 1539 1537 1534 1532 1531 1530 1529 1529 1529 1532 1526 1524 1522 1520 1519 1518 1517 1516 1516 1516 1515 1517 1517 1516 1520 1509 1511 1503 1499 1478 1476
1571 1569 1568 1567 1566 1565 1563 1561 1559 1557 1555 1553 1550 1547 1544 1542 1539 1537 1535 1532 1534 1532 1528 1526 1526 1524 1523 1522 1520 1519 1518 1517 1516 1515 1516 1515 1519 1519 1510 1509 1505 1505 1506 1502 1484 1476 1476
1572 1571 1568 1566 1566 1564 1563 1561 1559 1557 1555 1553 1550 1547 1544 1541 1539 1537 1535 1533 1533 1535 1527 1522 1523 1522 1521 1520 1519 1518 1518 1519 1516 1517 1514 1517 1518 1503 1504 1503 1504 1502 1503 1498 1480 1474 1475
1573 1572 1571 1568 1565 1564 1562 1560 1558 1557 1554 1552 1549 1547 1545 1541 1539 1538 1536 1535 1533 1532 1531 1522 1521 1521 1521 1521 1518 1517 1518 1517 1516 1516 1513 1515 1503 1500 1501 1499 1499 1498 1496 1491 1488 1478 1472
1573 1572 1571 1568 1566 1563 1561 1559 1557 1555 1553 1551 1549 1546 1544 1542 1541 1538 1537 1536 1535 1534 1539 1523 1520 1520 1520 1518 1518 1516 1516 1518 1516 1516 1513 1512 1502 1501 1500 1500 1497 1499 1486 1486 1485 1487 1494
1573 1571 1569 1567 1565 1563 1560 1558 1556 1554 1552 1550 1548 1546 1543 1540 1540 1538 1539 1536 1535 1535 1558 1522 1519 1518 1517 1520 1517 1515 1515 1515 1515 1514 1516 1508 1502 1502 1501 1495 1495 1493 1484 1486 1482 1485 1490
1573 1571 1569 1566 1564 1561 1558 1556 1554 1552 1550 1548 1547 1544 1542 1540 1539 1538 1536 1535 1536 1547 1550 1519 1518 1518 1518 1516 1515 1514 1515 1515 1514 1513 1512 1508 1502 1501 1497 1493 1492 1489 1484 1484 1487 1490 1499
1572 1569 1567 1565 1562 1560 1557 1554 1551 1549 1547 1546 1545 1542 1541 1538 1538 1536 1535 1536 1548 1555 1523 1518 1517 1517 1519 1517 1516 1514 1514 1516 1518 1524 1520 1511 1501 1497 1496 1496 1490 1492 1494 1504 1496 1506 1495
1569 1567 1565 1562 1560 1557 1554 1551 1549 1546 1544 1542 1541 1539 1537 1536 1535 1535 1536 1538 1549 1527 1523 1516 1517 1517 1519 1516 1516 1514 1515 1518 1514 1517 1530 1532 1516 1497 1497 1497 1499 1500 1502 1524 1507 1513 1503
1564 1562 1560 1558 1556 1553 1550 1547 1545 1543 1541 1538 1536 1535 1534 1533 1532 1533 1535 1553 1538 1525 1515 1516 1517 1518 1517 1516 1517 1516 1516 1517 1512 1513 1518 1525 1513 1497 1496 1496 1498 1497 1506 1501 1506 1507 1521
1560 1559 1558 1555 1553 1550 1547 1544 1542 1540 1538 1535 1533 1531 1530 1528 1529 1532 1534 1534 1522 1515 1514 1515 1518 1518 1518 1515 1517 1516 1514 1509 1508 1509 1510 1515 1522 1500 1497 1496 1498 1499 1502 1509 1514 1508 1497
1561 1558 1555 1553 1550 1547 1544 1541 1538 1536 1535 1533 1532 1528 1527 1527 1528 1530 1535 1528 1517 1512 1512 1514 1514 1516 1516 1513 1516 1516 1511 1506 1505 1509 1510 1513 1520 1506 1499 1497 1499 1502 1503 1504 1509 1514 1510
1561 1559 1556 1553 1550 1546 1542 1538 1536 1534 1532 1531 1530 1530 1526 1526 1530 1527 1524 1518 1512 1509 1510 1511 1511 1511 1512 1512 1512 1515 1511 1503 1501 1503 1510 1510 1519 1524 1501 1494 1496 1495 1497 1501 1512 1508 1511
1561 1559 1557 1556 1550 1546 1541 1538 1535 1533 1531 1531 1529 1527 1524 1524 1529 1526 1519 1515 1512 1509 1510 1509 1510 1508 1508 1509 1512 1508 1504 1499 1499 1501 1506 1508 1516 1528 1504 1499 1495 1495 1495 1496 1503 1508 1506
1561 1559 1557 1554 1552 1547 1542 1537 1534 1532 1531 1532 1532 1528 1524 1522 1523 1522 1522 1518 1515 1509 1507 1508 1506 1507 1509 1509 1508 1505 1504 1500 1500 1501 1501 1503 1512 1507 1510 1496 1496 1497 1496 1495 1501 1518 1500
1562 1559 1558 1554 1551 1548 1543 1539 1534 1531 1530 1533 1531 1527 1526 1524 1522 1523 1522 1519 1518 1516 1509 1507 1506 1508 1510 1511 1507 1507 1503 1501 1501 1499 1501 1504 1509 1511 1502 1499 1499 1497 1492 1495 1498 1495 1497
1562 1559 1557 1554 1551 1548 1545 1540 1537 1532 1530 1531 1532 1530 1527 1525 1522 1522 1521 1518 1514 1514 1513 1510 1509 1508 1508 1510 1506 1504 1503 1503 1500 1500 1502 1503 1504 1506 1501 1493 1495 1493 1485 1485 1485 1484 1484
1559 1558 1555 1553 1551 1547 1546 1542 1538 1535 1532 1532 1532 1530 1530 1523 1522 1522 1518 1517 1515 1516 1510 1510 1513 1511 1509 1507 1503 1500 1500 1498 1496 1496 1500 1503 1504 1507 1499 1494 1494 1489 1470 1468 1466 1466 1466
1556 1556 1554 1551 1549 1546 1544 1543 1540 1539 1536 1534 1534 1532 1531 1524 1522 1521 1519 1518 1517 1518 1516 1514 1512 1511 1505 1503 1497 1492 1489 1486 1485 1484 1485 1495 1499 1502 1503 1494 1495 1459 1455 1455 1454 1452 1454
1553 1553 1552 1549 1546 1544 1543 1541 1539 1539 1537 1535 1534 1534 1532 1526 1524 1522 1520 1519 1517 1515 1513 1509 1508 1506 1504 1502 1499 1491 1485 1482 1477 1475 1477 1478 1487 1492 1497 1499 1470 1457 1450 1456 1454 1444 1441
1549 1549 1548 1546 1544 1542 1540 1540 1537 1537 1536 1534 1533 1532 1532 1529 1521 1521 1520 1520 1519 1514 1507 1501 1502 1501 1500 1496 1495 1487 1483 1477 1473 1473 1476 1479 1480 1479 1496 1489 1471 1451 1446 1444 1445 1449 1431
1546 1544 1544 1542 1541 1539 1537 1536 1534 1533 1532 1531 1530 1529 1528 1526 1519 1517 1519 1518 1519 1516 1511 1506 1503 1499 1497 1490 1488 1483 1476 1471 1463 1466 1479 1481 1484 1478 1476 1470 1458 1445 1443 1446 1452 1440 1426
1541 1540 1539 1537 1536 1534 1532 1530 1529 1529 1528 1527 1525 1525 1525 1519 1514 1512 1513 1515 1514 1513 1511 1505 1504 1493 1492 1489 1479 1471 1464 1457 1455 1450 1463 1462 1475 1476 1473 1471 1452 1435 1442 1446 1429 1425 1425
1537 1536 1534 1531 1529 1528 1526 1525 1524 1523 1523 1522 1519 1520 1519 1514 1507 1507 1508 1506 1503 1505 1506 1503 1502 1498 1493 1490 1480 1477 1465 1458 1452 1440 1443 1447 1441 1443 1450 1439 1428 1427 1425 1425 1426 1424 1424